Weather History for Jacksonville Craig, FL

Change the Weather History Date:

Tuesday, November 6, 2012

  Actual Average Record
Temperature  
Mean Temperature 62 °F -  
Max Temperature 72 °F 73 °F 84 °F (2003)
Min Temperature 53 °F 55 °F 42 °F (2010)
Degree Days  
Heating Degree Days 2    
Growing Degree Days 12 (Base 50)    
Moisture  
Dew Point 53 °F    
Average Humidity 76    
Maximum Humidity 90    
Minimum Humidity 53    
Precipitation  
Precipitation 0.08 in - - ()
Sea Level Pressure  
Sea Level Pressure 29.89 in    
Wind  
Wind Speed 3 mph (NNE)    
Max Wind Speed 10 mph    
Max Gust Speed -    
Visibility 10 miles    
Events Rain    
Averages and records for this station are not official NWS values.
T = Trace of Precipitation, MM = Missing Value Source: NWS Daily Summary

Daily Weather History Graph

Daily Weather History Graph

Search for Another Location

Airport:

Trip Planner

Search our weather history database for the weather conditions in past years. The results will help you decide how hot, cold, wet, or windy it might be!

Date:

Astronomy

Nov. 06, 2012 Rise Set
Actual Time 6:44 AM EST 5:34 PM EST
Civil Twilight 6:19 AM EST 5:59 PM EST
Nautical Twilight 5:51 AM EST 6:27 PM EST
Astronomical Twilight 5:22 AM EST 6:56 PM EST
Moon No Moon Rise 12:39 PM EST (11/6)
Length of Visible Light 11h 39m
Length of Day
10h 49m
Waning Gibbous, 53% of the Moon is Illuminated
Nov 6
Waning Gibbous
Nov 6
Last Quarter
Nov 13
New
Nov 20
First Quarter
Nov 28
Full

Hourly Weather History & Observations

Time (EST) Temp. Dew Point Humidity Pressure Visibility Wind Dir Wind Speed Gust Speed Precip Events Conditions
12:53 AM 55.0 °F 50.0 °F 83% 29.94 in 10.0 mi Calm Calm - N/A   Clear
1:53 AM 53.1 °F 48.9 °F 86% 29.94 in 10.0 mi Calm Calm - N/A   Clear
2:53 AM 53.1 °F 50.0 °F 89% 29.92 in 9.0 mi Calm Calm - N/A   Clear
3:53 AM 54.0 °F 50.0 °F 86% 29.91 in 10.0 mi Calm Calm - N/A   Partly Cloudy
4:53 AM 55.9 °F 53.1 °F 90% 29.90 in 10.0 mi Calm Calm - N/A   Overcast
5:53 AM 57.9 °F 54.0 °F 87% 29.91 in 10.0 mi Calm Calm - N/A   Overcast
7:53 AM 57.9 °F 54.0 °F 87% 29.97 in 8.0 mi North 10.4 mph - 0.06 in Rain Light Rain
8:53 AM 57.9 °F 55.0 °F 90% 29.91 in 8.0 mi East 9.2 mph - 0.02 in Rain Light Rain
9:53 AM 63.0 °F 55.0 °F 75% 29.91 in 10.0 mi Calm Calm - 0.00 in   Scattered Clouds
10:53 AM 66.0 °F 52.0 °F 60% 29.90 in 10.0 mi Calm Calm - N/A   Mostly Cloudy
11:53 AM 69.1 °F 54.0 °F 58% 29.88 in 10.0 mi South 5.8 mph - N/A   Partly Cloudy
12:53 PM 70.0 °F 54.0 °F 57% 29.85 in 10.0 mi SSE 4.6 mph - N/A   Mostly Cloudy
1:53 PM 72.0 °F 55.0 °F 55% 29.83 in 10.0 mi WSW 9.2 mph - N/A   Mostly Cloudy
2:53 PM 72.0 °F 54.0 °F 53% 29.83 in 10.0 mi WNW 5.8 mph - N/A   Partly Cloudy
3:53 PM 68.0 °F 54.0 °F 61% 29.83 in 10.0 mi East 5.8 mph - N/A   Mostly Cloudy
4:53 PM 66.0 °F 54.0 °F 65% 29.83 in 10.0 mi ENE 4.6 mph - N/A   Mostly Cloudy
5:53 PM 62.1 °F 55.0 °F 78% 29.84 in 10.0 mi Calm Calm - N/A   Clear
6:53 PM 57.9 °F 54.0 °F 87% 29.86 in 10.0 mi Calm Calm - N/A   Clear
7:53 PM 57.9 °F 54.0 °F 87% 29.88 in 10.0 mi North 4.6 mph - N/A   Partly Cloudy
8:53 PM 61.0 °F 54.0 °F 78% 29.89 in 10.0 mi NNE 6.9 mph - N/A   Partly Cloudy
9:53 PM 60.1 °F 54.0 °F 80% 29.88 in 10.0 mi North 5.8 mph - N/A   Partly Cloudy
10:29 PM 60.8 °F 53.6 °F 77% 29.89 in 10.0 mi North 8.1 mph - N/A   Mostly Cloudy
10:53 PM 60.1 °F 53.1 °F 78% 29.89 in 10.0 mi North 8.1 mph - N/A   Overcast
11:04 PM 59.0 °F 51.8 °F 77% 29.89 in 10.0 mi North 6.9 mph - N/A   Overcast
11:53 PM 55.9 °F 50.0 °F 80% 29.89 in 10.0 mi North 5.8 mph - N/A   Clear